Location: Hopewell Observatory
(38.8698°N, 77.6988°W)
Time: 13:54:20
(UTC-04:00)

Cosmos 1544 - Pass Details

Date: 26 May 2018
Orbit: 474 x 495 km, 82.5° (Epoch: 15 October)

Event Time Altitude Azimuth Distance (km) Brightness Sun altitude
Rises 22:27:16 0° 6° (N) 2,589 7.4 -19.1°
Reaches altitude 10° 22:29:42 10° 21° (NNE) 1,698 6.2 -19.4°
Enters shadow 22:32:24 23° 67° (ENE) 1,075 4.6 -19.7°
